Погода в Закулее

Россия / Иркутская область     53°41′27″N   103°01′47″E
темп.,
°C
ветер,
м/с
пор.,
м/с
влажн.,
%
обл.,
%
осадки,
мм/ч
давл.,
гПа
погр.,
м
17 мая, пн
пн1723:00+7сз2796100 2.2 1010512
02:00+6с1396100 7.3 1009189
05:00+6зсз1194100 3.6 101058
08:00+8зсз467562 3.8 1010731
11:00+10зсз575599 0.0 10101413
14:00+9сз6664100 0.0 10111064
17:00+7зсз577182 0.1 1011887
20:00+8зсз5868100 0.1 1011646
18 мая, вт
вт1823:00+6з51087100 0.1 1012398
02:00+5з4885100 0.2 1012277
05:00+4з3786100 0.0 1012184
08:00+6з4574100 0.1 1012630
11:00+5зюз4591100 0.3 1012618
14:00+5з4592100 0.4 1011495
17:00+7з3577100 0.1 1008763
20:00+7зюз2378100 0.2 1006233
19 мая, ср
ср1923:00+5ююв2394100 1.0 1004172
02:00+4всв2496100 2.9 1001186
05:00+4всв5896100 6.8 1000479
08:00+4ссв4896100 9.6 1003580
11:00+8сз2373100 0.1 1005929
14:00+9зюз2169100 0.1 1005733
17:00+10ююв336194 0.0 10021052
20:00+8вюв2473100 0.0 999128
20 мая, чт
чт2023:00+7юв61486100 0.5 996531
02:00+6ссз2293100 1.3 997113
05:00+6зсз3793100 0.3 999430
08:00+4сз61194100 0.4 1003755
11:00+4сз6891100 0.2 1005719
14:00+6ссз5680100 0.3 1005792
17:00+6ссз5781100 0.3 1004650
20:00+5ссз5887100 1.3 1005660
21 мая, пт
пт2123:00+4с71380100 1.9 1005942
02:00+2сз71394100 3.8 1006906
05:00+2сз91577100 1.3 10061109
08:00+2сз91671100 1.6 10071238
11:00+3сз111677100 0.2 10071293
14:00+5сз101566100 0.4 10071620
17:00+6сз91563100 0.1 10071590
20:00+5сз91558100 0.1 10071212